H1 CPF 2 NER 2024 3 12 9 072 01 glonass137 H2 1705501 9137 42939 2024 3 12 0 0 0 2024 3 15 23 45 0 900 1 1 0 0 0 1 H9 10 0 60381 0.00000 0 -17945236.057 -9875559.788 15195963.473 10 0 60381 900.00000 0 -19161591.856 -11091703.979 12657516.553 10 0 60381 1800.00000 0 -20226424.073 -11989773.403 9873051.860 10 0 60381 2700.00000 0 -21082361.594 -12579794.977 6896652.011 10 0 60381 3600.00000 0 -21677300.985 -12883661.844 3786156.262 10 0 60381 4500.00000 0 -21966685.348 -12933964.357 602033.909 10 0 60381 5400.00000 0 -21915485.401 -12772377.431 -2593795.865 10 0 60381 6300.00000 0 -21499798.188 -12447673.176 -5739174.156 10 0 60381 7200.00000 0 -20707994.926 -12013443.758 -8772918.112 10 0 60381 8100.00000 0 -19541368.552 -11525631.829 -11636017.809 10 0 60381 9000.00000 0 -18014252.792 -11039974.054 -14272790.097 10 0 60381 9900.00000 0 -16153606.983 -10609466.844 -16631966.230 10 0 60381 10800.00000 0 -13998083.526 -10281962.367 -18667691.671 10 0 60381 11700.00000 0 -11596616.664 -10097997.112 -20340418.407 10 0 60381 12600.00000 0 -9006591.399 -10088945.202 -21617672.478 10 0 60381 13500.00000 0 -6291668.816 -10275574.694 -22474682.111 10 0 60381 14400.00000 0 -3519358.304 -10667067.824 -22894854.719 10 0 60381 15300.00000 0 -758437.499 -11260546.498 -22870094.078 10 0 60381 16200.00000 0 1923673.137 -12041122.911 -22400952.079 10 0 60381 17100.00000 0 4463472.576 -12982473.096 -21496612.638 10 0 60381 18000.00000 0 6803772.619 -14047909.215 -20174708.448 10 0 60381 18900.00000 0 8895823.892 -15191905.524 -18460974.396 10 0 60381 19800.00000 0 10701087.258 -16362013.900 -16388744.478 10 0 60381 20700.00000 0 12192578.169 -17501088.490 -13998301.974 10 0 60381 21600.00000 0 13355729.381 -18549726.051 -11336095.456 10 0 60381 22500.00000 0 14188737.551 -19448819.431 -8453835.734 10 0 60381 23400.00000 0 14702380.734 -20142116.832 -5407491.245 10 0 60381 24300.00000 0 14919315.951 -20578679.158 -2256201.368 10 0 60381 25200.00000 0 14872887.713 -20715131.993 938871.184 10 0 60381 26100.00000 0 14605498.840 -20517617.286 4115726.503 10 0 60381 27000.00000 0 14166613.180 -19963362.457 7212729.014 10 0 60381 27900.00000 0 13610475.196 -19041800.623 10169801.024 10 0 60381 28800.00000 0 12993643.113 -17755194.509 12929585.116 10 0 60381 29700.00000 0 12372439.934 -16118737.356 15438552.963 10 0 60381 30600.00000 0 11800429.898 -14160125.916 17648039.369 10 0 60381 31500.00000 0 11326026.677 -11918622.659 19515181.866 10 0 60381 32400.00000 0 10990333.903 -9443645.415 21003748.175 10 0 60381 33300.00000 0 10825308.758 -6792942.177 22084836.075 10 0 60381 34200.00000 0 10852325.793 -4030425.925 22737432.586 10 0 60381 35100.00000 0 11081201.425 -1223758.232 22948822.075 10 0 60381 36000.00000 0 11509720.333 1558219.234 22714835.558 10 0 60381 36900.00000 0 12123684.179 4248099.881 22039936.316 10 0 60381 37800.00000 0 12897481.258 6782466.631 20937139.861 10 0 60381 38700.00000 0 13795154.029 9104280.569 19427769.219 10 0 60381 39600.00000 0 14771920.584 11165005.326 17541049.493 10 0 60381 40500.00000 0 15776086.976 12926379.517 15313548.696 10 0 60381 41400.00000 0 16751270.693 14361763.880 12788474.764 10 0 60381 42300.00000 0 17638842.135 15457007.259 10014841.623 10 0 60381 43200.00000 0 18380481.398 16210795.603 7046519.901 10 0 60381 44100.00000 0 18920742.345 16634469.725 3941190.399 10 0 60381 45000.00000 0 19209515.223 16751319.934 759220.720 10 0 60381 45900.00000 0 19204283.032 16595387.827 -2437512.792 10 0 60381 46800.00000 0 18872075.314 16209826.459 -5586834.295 10 0 60381 47700.00000 0 18191035.708 15644888.982 -8627484.502 10 0 60381 48600.00000 0 17151535.910 14955631.634 -11500319.037 10 0 60381 49500.00000 0 15756787.948 14199429.140 -14149464.944 10 0 60381 50400.00000 0 14022927.951 13433408.490 -16523412.089 10 0 60381 51300.00000 0 11978567.061 12711910.319 -18576017.768 10 0 60381 52200.00000 0 9663827.607 12084085.767 -20267404.761 10 0 60381 53100.00000 0 7128904.388 11591730.649 -21564735.372 10 0 60381 54000.00000 0 4432210.769 11267448.464 -22442846.747 10 0 60381 54900.00000 0 1638186.542 11133219.575 -22884735.539 10 0 60381 55800.00000 0 -1185141.480 11199436.618 -22881883.104 10 0 60381 56700.00000 0 -3968745.102 11464446.331 -22434415.468 10 0 60381 57600.00000 0 -6645219.710 11914616.672 -21551095.483 10 0 60381 58500.00000 0 -9151340.117 12524925.972 -20249147.737 10 0 60381 59400.00000 0 -11430441.975 13260048.940 -18553919.862 10 0 60381 60300.00000 0 -13434530.734 14075893.544 -16498386.952 10 0 60381 61200.00000 0 -15126031.516 14921523.861 -14122508.693 10 0 60381 62100.00000 0 -16479108.248 15741387.794 -11472451.644 10 0 60381 63000.00000 0 -17480498.390 16477755.726 -8599691.651 10 0 60381 63900.00000 0 -18129829.706 17073267.281 -5560013.757 10 0 60381 64800.00000 0 -18439407.231 17473478.764 -2412429.048 10 0 60381 65700.00000 0 -18433480.688 17629303.757 781970.542 10 0 60381 66600.00000 0 -18147024.325 17499243.837 3961197.073 10 0 60381 67500.00000 0 -17624081.562 17051315.125 7063567.988 10 0 60381 68400.00000 0 -16915744.930 16264589.234 10028900.681 10 0 60381 69300.00000 0 -16077857.010 15130283.289 12799676.991 10 0 60381 70200.00000 0 -15168529.549 13652352.659 15322155.199 10 0 60381 71100.00000 0 -14245585.349 11847560.780 17547408.239 10 0 60381 72000.00000 0 -13364030.538 9745022.275 19432268.348 10 0 60381 72900.00000 0 -12573663.325 7385237.416 20940160.405 10 0 60381 73800.00000 0 -11916919.412 4818657.015 22041808.350 10 0 60381 74700.00000 0 -11427044.302 2103836.274 22715801.512 10 0 60381 75600.00000 0 -11126668.934 -694747.045 22949010.287 10 0 60381 76500.00000 0 -11026848.316 -3509120.837 22736843.337 10 0 60381 77400.00000 0 -11126603.558 -6270393.784 22083341.270 10 0 60381 78300.00000 0 -11412986.745 -8911371.753 21001104.709 10 0 60381 79200.00000 0 -11861666.352 -11369107.942 19511057.554 10 0 60381 80100.00000 0 -12438009.163 -13587281.681 17642049.282 10 0 60381 81000.00000 0 -13098613.761 -15518307.629 15430303.103 10 0 60381 81900.00000 0 -13793231.614 -17125088.039 12918719.743 10 0 60381 82800.00000 0 -14466995.171 -18382335.239 10156049.608 10 0 60381 83700.00000 0 -15062859.174 -19277409.302 7195948.762 10 0 60381 84600.00000 0 -15524151.971 -19810636.034 4095936.722 10 0 60381 85500.00000 0 -15797128.577 -19995092.150 916276.359 10 0 60382 0.00000 0 -15833416.811 -19855867.088 -2281201.725 10 0 60382 900.00000 0 -15592252.065 -19428832.926 -5434308.612 10 0 60382 1800.00000 0 -15042405.033 -18758975.160 -8481711.639 10 0 60382 2700.00000 0 -14163719.774 -17898355.366 -11364135.331 10 0 60382 3600.00000 0 -12948195.791 -16903792.676 -14025520.203 10 0 60382 4500.00000 0 -11400567.386 -15834362.855 -16414117.860 10 0 60382 5400.00000 0 -9538354.825 -14748821.280 -18483500.307 10 0 60382 6300.00000 0 -7391384.206 -13703059.156 -20193463.623 10 0 60382 7200.00000 0 -5000795.426 -12747700.607 -21510808.430 10 0 60382 8100.00000 0 -2417579.087 -11925941.981 -22409982.293 10 0 60382 9000.00000 0 299297.159 -11271724.169 -22873572.027 10 0 60382 9900.00000 0 3085095.151 -10808314.431 -22892636.889 10 0 60382 10800.00000 0 5871754.351 -10547356.767 -22466876.783 10 0 60382 11700.00000 0 8590480.319 -10488430.029 -21604632.722 10 0 60382 12600.00000 0 11174366.498 -10619131.560 -20322719.924 10 0 60382 13500.00000 0 13560941.104 -10915682.079 -18646097.075 10 0 60382 14400.00000 0 15694534.056 -11344025.666 -16607378.260 10 0 60382 15300.00000 0 17528366.358 -11861377.926 -14246197.079 10 0 60382 16200.00000 0 19026275.946 -12418156.652 -11608435.213 10 0 60382 17100.00000 0 20164009.144 -12960213.214 -8745330.326 10 0 60382 18000.00000 0 20930024.912 -13431270.275 -5712480.577 10 0 60382 18900.00000 0 21325779.471 -13775462.728 -2568765.052 10 0 60382 19800.00000 0 21365480.531 -13939874.391 624798.889 10 0 60382 20700.00000 0 21075322.543 -13876963.147 3806239.034 10 0 60382 21600.00000 0 20492236.129 -13546771.918 6913829.448 10 0 60382 22500.00000 0 19662205.034 -12918831.881 9887285.908 10 0 60382 23400.00000 0 18638222.072 -11973677.276 12668932.425 10 0 60382 24300.00000 0 17477970.378 -10703907.460 15204816.352 10 0 60382 25200.00000 0 16241327.673 -9114750.845 17445750.716 10 0 60382 26100.00000 0 14987798.341 -7224106.142 19348263.934 10 0 60382 27000.00000 0 13773980.919 -5062058.091 20875439.027 10 0 60382 27900.00000 0 12651176.902 -2669886.633 21997626.631 10 0 60382 28800.00000 0 11663240.641 -98609.472 22693018.474 10 0 60382 29700.00000 0 10844760.016 2592882.781 22948070.674 10 0 60382 30600.00000 0 10219643.630 5340022.859 22757768.846 10 0 60382 31500.00000 0 9800173.458 8075004.680 22125729.884 10 0 60382 32400.00000 0 9586562.456 10729362.920 21064138.146 10 0 60382 33300.00000 0 9567035.687 13236588.366 19593516.745 10 0 60382 34200.00000 0 9718431.716 15534671.317 17742337.599 10 0 60382 35100.00000 0 10007299.198 17568467.956 15546476.936 10 0 60382 36000.00000 0 10391442.812 19291791.608 13048525.895 10 0 60382 36900.00000 0 10821853.590 20669141.872 10296968.789 10 0 60382 37800.00000 0 11244942.250 21676999.444 7345244.381 10 0 60382 38700.00000 0 11604981.051 22304632.460 4250708.046 10 0 60382 39600.00000 0 11846650.501 22554380.524 1073515.000 10 0 60382 40500.00000 0 11917582.480 22441404.605 -2124553.391 10 0 60382 41400.00000 0 11770791.211 21992913.576 -5281296.830 10 0 60382 42300.00000 0 11366888.065 21246900.389 -8335312.529 10 0 60382 43200.00000 0 10675985.243 20250441.720 -11227196.348 10 0 60382 44100.00000 0 9679206.574 19057633.485 -13900704.430 10 0 60382 45000.00000 0 8369740.358 17727250.032 -16303851.959 10 0 60382 45900.00000 0 6753388.696 16320226.375 -18389927.183 10 0 60382 46800.00000 0 4848589.068 14897070.135 -20118400.726 10 0 60382 47700.00000 0 2685906.348 13515312.531 -21455712.511 10 0 60382 48600.00000 0 307015.685 12227105.775 -22375921.269 10 0 60382 49500.00000 0 -2236781.926 11077067.652 -22861204.466 10 0 60382 50400.00000 0 -4886450.044 10100463.412 -22902199.487 10 0 60382 51300.00000 0 -7577434.942 9321800.549 -22498180.025 10 0 60382 52200.00000 0 -10242119.787 8753894.544 -21657064.798 10 0 60382 53100.00000 0 -12812413.298 8397443.745 -20395258.808 10 0 60382 54000.00000 0 -15222365.855 8241130.118 -18737330.532 10 0 60382 54900.00000 0 -17410704.956 8262240.573 -16715531.413 10 0 60382 55800.00000 0 -19323185.183 8427781.716 -14369167.001 10 0 60382 56700.00000 0 -20914655.618 8696040.229 -11743831.892 10 0 60382 57600.00000 0 -22150759.358 9018522.384 -8890523.206 10 0 60382 58500.00000 0 -23009195.025 9342190.309 -5864649.751 10 0 60382 59400.00000 0 -23480488.489 9611900.094 -2724956.120 10 0 60382 60300.00000 0 -23568243.432 9772938.425 467617.407 10 0 60382 61200.00000 0 -23288861.157 9773550.221 3651116.851 10 0 60382 62100.00000 0 -22670742.269 9567350.182 6763775.376 10 0 60382 63000.00000 0 -21753004.479 9115516.094 9745209.615 10 0 60382 63900.00000 0 -20583770.979 8388670.896 12537588.185 10 0 60382 64800.00000 0 -19218101.674 7368373.709 15086749.869 10 0 60382 65700.00000 0 -17715654.293 6048156.358 17343250.031 10 0 60382 66600.00000 0 -16138173.480 4434061.006 19263315.336 10 0 60382 67500.00000 0 -14546912.899 2544655.312 20809688.782 10 0 60382 68400.00000 0 -13000097.891 410523.213 21952349.242 10 0 60382 69300.00000 0 -11550534.359 -1926748.804 22669092.074 10 0 60382 70200.00000 0 -10243463.276 -4416049.181 22945959.993 10 0 60382 71100.00000 0 -9114749.895 -6998622.642 22777516.089 10 0 60382 72000.00000 0 -8189482.823 -9610278.676 22166953.695 10 0 60382 72900.00000 0 -7481041.054 -12183836.847 21126040.706 10 0 60382 73800.00000 0 -6990667.691 -14651708.586 19674898.874 10 0 60382 74700.00000 0 -6707567.973 -16948509.118 17841621.629 10 0 60382 75600.00000 0 -6609527.406 -19013591.634 15661736.948 10 0 60382 76500.00000 0 -6664023.943 -20793398.577 13177524.776 10 0 60382 77400.00000 0 -6829787.375 -22243532.134 10437201.434 10 0 60382 78300.00000 0 -7058740.046 -23330457.379 7493986.239 10 0 60382 79200.00000 0 -7298236.687 -24032766.615 4405068.067 10 0 60382 80100.00000 0 -7493508.236 -24341951.653 1230491.947 10 0 60382 81000.00000 0 -7590205.514 -24262651.438 -1968012.368 10 0 60382 81900.00000 0 -7536934.203 -23812364.529 -5128236.559 10 0 60382 82800.00000 0 -7287672.639 -23020638.667 -8188710.308 10 0 60382 83700.00000 0 -6803968.882 -21927771.828 -11089903.765 10 0 60382 84600.00000 0 -6056822.772 -20583079.952 -13775391.684 10 0 60382 85500.00000 0 -5028172.167 -19042804.879 -16192955.770 10 0 60383 0.00000 0 -3711919.526 -17367751.302 -18295603.161 10 0 60383 900.00000 0 -2114453.651 -15620751.802 -20042482.020 10 0 60383 1800.00000 0 -254645.469 -13864069.124 -21399673.668 10 0 60383 2700.00000 0 1836685.230 -12156841.995 -22340849.919 10 0 60383 3600.00000 0 4117808.909 -10552683.690 -22847780.384 10 0 60383 4500.00000 0 6537589.129 -9097532.753 -22910681.602 10 0 60383 5400.00000 0 9037386.966 -7827845.322 -22528401.634 10 0 60383 6300.00000 0 11553288.207 -6769203.802 -21708437.037 10 0 60383 7200.00000 0 14018561.080 -5935398.972 -20466782.301 10 0 60383 8100.00000 0 16366242.786 -5328022.721 -18827614.979 10 0 60383 9000.00000 0 18531747.690 -4936587.079 -16822822.709 10 0 60383 9900.00000 0 20455389.100 -4739163.255 -14491381.374 10 0 60383 10800.00000 0 22084710.119 -4703512.548 -11878596.382 10 0 60383 11700.00000 0 23376526.980 -4788660.434 -9035221.715 10 0 60383 12600.00000 0 24298600.128 -4946846.540 -6016473.798 10 0 60383 13500.00000 0 24830863.891 -5125767.460 -2880959.306 10 0 60383 14400.00000 0 24966163.951 -5271017.080 310462.254 10 0 60383 15300.00000 0 24710472.373 -5328620.814 3495858.964 10 0 60383 16200.00000 0 24082571.866 -5247556.227 6613426.921 10 0 60383 17100.00000 0 23113223.075 -4982153.189 9602687.293 10 0 60383 18000.00000 0 21843850.294 -4494271.796 12405656.723 10 0 60383 18900.00000 0 20324801.073 -3755165.744 14967968.495 10 0 60383 19800.00000 0 18613252.791 -2746952.054 17239922.974 10 0 60383 20700.00000 0 16770853.846 -1463624.601 19177447.302 10 0 60383 21600.00000 0 14861197.936 88432.024 20742946.241 10 0 60383 22500.00000 0 12947236.589 1890451.021 21906028.250 10 0 60383 23400.00000 0 11088737.463 3911815.183 22644093.214 10 0 60383 24300.00000 0 9339893.835 6111091.277 22942770.902 10 0 60383 25200.00000 0 7747184.273 8437525.464 22796201.881 10 0 60383 26100.00000 0 6347571.077 10832939.025 22207155.473 10 0 60383 27000.00000 0 5167111.987 13233947.041 21186982.204 10 0 60383 27900.00000 0 4220042.543 15574409.069 19755401.137 10 0 60383 28800.00000 0 3508366.978 17788010.917 17940125.480 10 0 60383 29700.00000 0 3021974.387 19810870.847 15776332.869 10 0 60383 30600.00000 0 2739274.974 21584062.056 13305989.650 10 0 60383 31500.00000 0 2628329.351 23055946.297 10577041.492 10 0 60383 32400.00000 0 2648423.028 24184220.998 7642485.386 10 0 60383 33300.00000 0 2752019.272 24937593.850 4559340.668 10 0 60383 34200.00000 0 2887007.312 25297014.203 1387539.058 10 0 60383 35100.00000 0 2999150.072 25256409.120 -1811244.464 10 0 60383 36000.00000 0 3034626.920 24822892.788 -4974796.644 10 0 60383 36900.00000 0 2942562.710 24016440.240 -8041582.567 10 0 60383 37800.00000 0 2677434.793 22869039.085 -10951949.386 10 0 60383 38700.00000 0 2201254.881 21423355.126 -13649292.885 10 0 60383 39600.00000 0 1485432.198 19730968.301 -16081163.411 10 0 60383 40500.00000 0 512237.985 17850253.573 -18200289.141 10 0 60383 41400.00000 0 -724191.539 15843996.192 -19965496.521 10 0 60383 42300.00000 0 -2217357.060 13776841.788 -21342509.908 10 0 60383 43200.00000 0 -3948424.718 11712688.376 -22304615.179 10 0 60383 44100.00000 0 -5886780.965 9712129.419 -22833174.790 10 0 60383 45000.00000 0 -7991091.182 7830054.606 -22917984.859 10 0 60383 45900.00000 0 -10210818.444 6113508.027 -22557467.906 10 0 60383 46800.00000 0 -12488139.567 4599892.285 -21758698.039 10 0 60383 47700.00000 0 -14760179.048 3315592.485 -20537258.549 10 0 60383 48600.00000 0 -16961468.204 2275076.196 -18916934.945 10 0 60383 49500.00000 0 -19026527.487 1480505.566 -16929249.550 10 0 60383 50400.00000 0 -20892464.721 921876.296 -14612846.706 10 0 60383 51300.00000 0 -22501481.284 577676.107 -12012740.480 10 0 60383 52200.00000 0 -23803182.036 416033.639 -9179439.357 10 0 60383 53100.00000 0 -24756592.861 396308.137 -6167964.865 10 0 60383 54000.00000 0 -25331801.863 471051.879 -3036783.155 10 0 60383 54900.00000 0 -25511155.932 588261.634 153329.709 10 0 60383 55800.00000 0 -25289962.954 693823.362 3340466.591 10 0 60383 56700.00000 0 -24676670.647 734046.296 6462789.265 10 0 60383 57600.00000 0 -23692514.866 658178.877 9459726.185 10 0 60383 58500.00000 0 -22370652.416 420799.879 12273144.736 10 0 60383 59400.00000 0 -20754814.880 -16016.625 14848475.326 10 0 60383 60300.00000 0 -18897539.865 -680854.166 17135765.786 10 0 60383 61200.00000 0 -16858053.541 -1591503.009 19090645.952 10 0 60383 62100.00000 0 -14699892.674 -2753967.228 20675184.257 10 0 60383 63000.00000 0 -12488364.918 -4161972.326 21858620.278 10 0 60383 63900.00000 0 -10287952.694 -5796995.139 22617959.561 10 0 60383 64800.00000 0 -8159768.078 -7628816.112 22938419.635 10 0 60383 65700.00000 0 -6159163.866 -9616572.334 22813718.849 10 0 60383 66600.00000 0 -4333599.480 -11710268.910 22246202.432 10 0 60383 67500.00000 0 -2720849.775 -13852687.197 21246803.103 10 0 60383 68400.00000 0 -1347630.645 -15981611.786 19834836.473 10 0 60383 69300.00000 0 -228698.135 -18032284.569 18037634.463 10 0 60383 70200.00000 0 633541.895 -19939984.489 15890023.007 10 0 60383 71100.00000 0 1248897.695 -21642625.877 13433653.235 10 0 60383 72000.00000 0 1638735.323 -23083267.009 10716198.297 10 0 60383 72900.00000 0 1834830.156 -24212423.813 7790430.788 10 0 60383 73800.00000 0 1877775.108 -24990091.440 4713198.272 10 0 60383 74700.00000 0 1815013.353 -25387388.243 1544316.791 10 0 60383 75600.00000 0 1698579.394 -25387752.500 -1654595.894 10 0 60383 76500.00000 0 1582644.996 -24987640.875 -4821324.113 10 0 60383 77400.00000 0 1520974.874 -24196698.684 -7894270.933 10 0 60383 78300.00000 0 1564401.048 -23037394.420 -10813663.119 10 0 60383 79200.00000 0 1758424.002 -21544133.708 -13522720.113 10 0 60383 80100.00000 0 2141043.361 -19761889.984 -15968763.503 10 0 60383 81000.00000 0 2740910.967 -17744409.572 -18104244.853 10 0 60383 81900.00000 0 3575885.391 -15552066.756 -19887671.630 10 0 60383 82800.00000 0 4652049.799 -13249458.992 -21284413.172 10 0 60383 83700.00000 0 5963235.326 -10902843.117 -22267371.265 10 0 60383 84600.00000 0 7491070.742 -8577519.710 -22817502.742 10 0 60383 85500.00000 0 9205556.929 -6335274.615 -22924184.471 10 0 60384 0.00000 0 11066142.494 -4231984.052 -22585414.296 10 0 60384 900.00000 0 13023257.038 -2315481.276 -21807844.286 10 0 60384 1800.00000 0 15020235.899 -623775.464 -20606646.653 10 0 60384 2700.00000 0 16995559.688 816307.928 -19005214.625 10 0 60384 3600.00000 0 18885313.014 1990007.255 -17034704.577 10 0 60384 4500.00000 0 20625760.976 2894991.163 -14733428.266 10 0 60384 5400.00000 0 22155935.919 3541197.617 -12146106.912 10 0 60384 6300.00000 0 23420126.586 3950153.814 -9323001.518 10 0 60384 7200.00000 0 24370165.768 4153807.074 -6318936.263 10 0 60384 8100.00000 0 24967420.872 4192917.236 -3192233.899 10 0 60384 9000.00000 0 25184404.264 4115079.464 -3583.829 10 0 60384 9900.00000 0 25005936.027 3972461.805 3185135.040 10 0 60384 10800.00000 0 24429810.575 3819353.784 6312053.718 10 0 60384 11700.00000 0 23466939.266 3709630.116 9316511.494 10 0 60384 12600.00000 0 22140963.108 3694237.121 12140229.922 10 0 60384 13500.00000 0 20487351.749 3818808.295 14728439.760 10 0 60384 14400.00000 0 18552026.305 4121509.966 17030939.260 10 0 60384 15300.00000 0 16389563.336 4631208.194 19003063.607 10 0 60384 16200.00000 0 14061054.545 5366034.546 20606547.220 10 0 60384 17100.00000 0 11631710.861 6332411.655 21810262.750 10 0 60384 18000.00000 0 9168310.031 7524580.293 22590822.957 10 0 60384 18900.00000 0 6736593.113 8924648.814 22933034.261 10 0 60384 19800.00000 0 4398717.226 10503164.134 22830193.458 10 0 60384 20700.00000 0 2210869.580 12220181.719 22284221.849 10 0 60384 21600.00000 0 221141.082 14026791.298 21305633.991 10 0 60384 22500.00000 0 -1532252.895 15867036.003 19913341.158 10 0 60384 23400.00000 0 -3022331.182 17680145.955 18134292.603 10 0 60384 24300.00000 0 -4234228.974 19402994.032 16002960.728 10 0 60384 25200.00000 0 -5165567.214 20972671.803 13560679.222 10 0 60384 26100.00000 0 -5826294.262 22329078.143 10854846.178 10 0 60384 27000.00000 0 -6238007.051 23417412.038 7938007.010 10 0 60384 27900.00000 0 -6432780.831 24190464.636 4866834.545 10 0 60384 28800.00000 0 -6451557.478 24610613.629 1701026.067 10 0 60384 29700.00000 0 -6342161.134 24651435.322 -1497861.016 10 0 60384 30600.00000 0 -6157025.951 24298865.703 -4667611.737 10 0 60384 31500.00000 0 -5950733.084 23551860.778 -7746570.170 10 0 60384 32400.00000 0 -5777462.279 22422527.691 -10674845.565 10 0 60384 33300.00000 0 -5688467.109 20935720.547 -13395483.674 10 0 60384 34200.00000 0 -5729681.839 19128117.614 -15855579.717 10 0 60384 35100.00000 0 -5939562.195 17046818.496 -18007310.757 10 0 60384 36000.00000 0 -6347252.268 14747520.106 -19808867.120 10 0 60384 36900.00000 0 -6971155.700 12292347.930 -21225264.676 10 0 60384 37800.00000 0 -7817972.103 9747433.332 -22229022.414 10 0 60384 38700.00000 0 -8882239.798 7180338.032 -22800692.555 10 0 60384 39600.00000 0 -10146404.554 4657433.030 -22929233.440 10 0 60384 40500.00000 0 -11581411.821 2241340.758 -22612218.517 10 0 60384 41400.00000 0 -13147797.958 -11453.717 -21855877.951 10 0 60384 42300.00000 0 -14797235.021 -2052723.866 -20674972.451 10 0 60384 43200.00000 0 -16474464.734 -3844268.162 -19092502.129 10 0 60384 44100.00000 0 -18119540.931 -5359249.578 -17139256.159 10 0 60384 45000.00000 0 -19670286.864 -6583053.827 -14853212.064 10 0 60384 45900.00000 0 -21064864.684 -7513632.130 -12278796.237 10 0 60384 46800.00000 0 -22244349.669 -8161315.855 -9466019.942 10 0 60384 47700.00000 0 -23155201.415 -8548112.417 -6469507.535 10 0 60384 48600.00000 0 -23751528.505 -8706513.536 -3347435.725 10 0 60384 49500.00000 0 -23997051.654 -8677867.319 -160404.474 10 0 60384 50400.00000 0 -23866682.998 -8510383.920 3029738.430 10 0 60384 51300.00000 0 -23347655.179 -8256859.772 6161096.202 10 0 60384 52200.00000 0 -22440152.779 -7972217.163 9172921.977 10 0 60384 53100.00000 0 -21157419.464 -7710963.523 12006794.476 10 0 60384 54000.00000 0 -19525336.112 -7524678.003 14607747.714 10 0 60384 54900.00000 0 -17581487.223 -7459631.631 16925333.101 10 0 60384 55800.00000 0 -15373754.207 -7554641.563 18914593.634 10 0 60384 56700.00000 0 -12958493.659 -7839250.026 20536931.833 10 0 60384 57600.00000 0 -10398375.833 -8332304.873 21760855.115 10 0 60384 58500.00000 0 -7759972.474 -9041001.873 22562584.695 10 0 60384 59400.00000 0 -5111193.352 -9960429.587 22926516.663 10 0 60384 60300.00000 0 -2518677.019 -11073636.815 22845526.579 10 0 60384 61200.00000 0 -45243.143 -12352220.817 22321111.720 10 0 60384 62100.00000 0 2252488.763 -13757412.903 21363368.009 10 0 60384 63000.00000 0 4326216.203 -15241617.194 19990801.577 10 0 60384 63900.00000 0 6137718.910 -16750339.326 18229977.889 10 0 60384 64800.00000 0 7660199.624 -18224425.370 16115014.417 10 0 60384 65700.00000 0 8879145.124 -19602517.949 13686925.724 10 0 60384 66600.00000 0 9792672.054 -20823626.976 10992832.903 10 0 60384 67500.00000 0 10411343.618 -21829707.218 8085051.998 10 0 60384 68400.00000 0 10757465.362 -22568134.059 5020078.704 10 0 60384 69300.00000 0 10863890.305 -22993972.771 1857489.000 10 0 60384 70200.00000 0 10772384.497 -23071944.894 -1341222.705 10 0 60384 71100.00000 0 10531622.854 -22778007.912 -4513844.833 10 0 60384 72000.00000 0 10194900.911 -22100480.650 -7598665.145 10 0 60384 72900.00000 0 9817660.363 -21040665.960 -10535678.005 10 0 60384 73800.00000 0 9454934.139 -19612943.644 -13267758.038 10 0 60384 74700.00000 0 9158820.224 -17844329.005 -15741776.549 10 0 60384 75600.00000 0 8976092.034 -15773515.084 -17909638.411 10 0 60384 76500.00000 0 8946047.193 -13449438.449 -19729218.935 10 0 60384 77400.00000 0 9098686.276 -10929428.416 -21165182.414 10 0 60384 78300.00000 0 9453298.802 -8277016.977 -22189666.650 10 0 60384 79200.00000 0 10017516.453 -5559500.702 -22782820.554 10 0 60384 80100.00000 0 10786873.554 -2845356.056 -22933184.906 10 0 60384 81000.00000 0 11744893.410 -201615.364 -22637909.459 10 0 60384 81900.00000 0 12863696.979 2308687.998 -21902802.732 10 0 60384 82800.00000 0 14105108.345 4628899.687 -20742213.969 10 0 60384 83700.00000 0 15422210.691 6710851.801 -19178749.875 10 0 60384 84600.00000 0 16761287.580 8516611.153 -17242831.820 10 0 60384 85500.00000 0 18064068.180 10019796.972 -14972102.149 99